www.pogodaiklimat.ru

Погода и климат >> Архив погоды >> Канада >> Cambridge Bay Arpt


ПОГОДА в Cambridge Bay Arpt

  • Прогноз погоды в Cambridge Bay Arpt
  • Монитор погоды в Cambridge Bay Arpt
  • Климат города

АРХИВ ПОГОДЫ в Cambridge Bay Arpt

Время (UTC), дата Ветер
(напр.,м/с)
 
Видим.   Явления Облачность Т
(С)
Тd
(С)
f
(%)
Тe
(С)
Тes
(С)
Комфортность P
(гПа)
Po
(гПа)
Тmin
(С)
Tmax
(С)
R
(мм)
S
(см)
09 17.02 СЗ 1 19 км 6/6 200 м
[]
-23.9 -27.2 74 -27 -27 1004.1 999.8
12 17.02 С 4 19 км 9/3 200 м
[Sc Ac As]
-22.4 -26.0 72 -32 -32 опасность
обморожения
1005.1 1000.8 -24.8 -16.5 25
15 17.02 СВ 4 19 км 9/9 200 м
[]
-21.8 -25.3 73 -31 -31 опасность
обморожения
1006.8 1002.5
18 17.02 В 3 24 км 9/8 600 м
[Sc Ac trans]
-20.9 -24.1 75 -29 -29 1007.5 1003.2 -24.8 -20.9
21 17.02 СВ 4 24 км 8/8 600 м
[]
-21.9 -25.1 75 -31 -31 опасность
обморожения
1007.8 1003.5
00 18.02 В 5 16 км 10/9 600 м
[Sc Ac trans]
-21.4 -24.3 77 -31 -31 опасность
обморожения
1008.2 1003.9 -24.8 -20.8
03 18.02 СВ 6 9000 м 10/10 100 м
[]
-20.2 -22.4 83 -31 -31 опасность
обморожения
1007.8 1003.5
06 18.02 СВ 5 6000 м слабый снег 10/10 100 м
[Frnb]
-18.7 -21.1 81 -28 -28 1008.0 1003.8 -24.8 -18.7 0.0 25
09 18.02 СВ 4 4000 м 10/10 100 м
[]
-18.4 -20.8 81 -27 -27 1008.3 1004.0
12 18.02 С 4 4000 м слабый снег 10/10 100 м
[Frnb]
-18.4 -20.8 81 -26 -26 1009.4 1005.1 -21.4 -18.7 0.4 25
15 18.02 С 4 16 км 9/9 100 м
[]
-18.0 -20.5 81 -26 -26 1009.8 1005.6
18 18.02 СЗ 3 16 км {снег} 1/1 300 м
[Sc]
-23.3 -26.1 78 -32 -31 опасность
обморожения
1011.4 1007.1 -24.3 -17.9 0.0 25
21 18.02 СЗ 5 24 км ясно -26.6 -29.8 74 -38 -38 опасность
обморожения
1013.3 1009.0
00 19.02 З 4 16 км ясно -27.5 -30.2 78 -38 -38 опасность
обморожения
1015.5 1011.2 -29.3 -17.9
03 19.02 З 4 16 км ясно -31.3 -34.7 72 -43 -43 опасность
обморожения
1016.8 1012.5
06 19.02 СЗ 4 19 км ясно -32.0 -35.3 72 -43 -43 опасность
обморожения
1018.2 1013.9 -32.5 -17.9 60
09 19.02 СЗ 3 16 км ясно -33.5 -36.9 71 -43 -43 опасность
обморожения
1020.8 1016.4
12 19.02 С 4 19 км ясно -35.2 -38.7 70 -47 -47 опасность
обморожения
1022.2 1017.8 -35.2 -17.9 25
15 19.02 СЗ 4 19 км 3/0
[]
-34.7 -38.2 70 -46 -46 опасность
обморожения
1023.9 1019.5
18 19.02 СВ 1 24 км 3/0
[Ac trans]
-33.6 -37.3 69 -38 -38 опасность
обморожения
1025.0 1020.6 -36.4 -31.4
21 19.02 СВ 5 24 км 1/0
[]
-32.2 -35.8 70 -45 -45 опасность
обморожения
1026.6 1022.2
00 20.02 С 4 24 км ледяные иглы {снег} 1/0
[Ac trans]
-33.7 -37.4 69 -45 -45 опасность
обморожения
1028.3 1023.9 -36.4 -31.4 0.0 25
03 20.02 С 4 24 км 1/0
[]
-35.9 -39.6 69 -49 -49 опасность
обморожения
1029.5 1025.1
06 20.02 С 4 19 км ледяные иглы {снег} 1/0
[Ac trans]
-35.6 -39.4 68 -48 -48 опасность
обморожения
1030.4 1026.0 -36.5 -31.4 0.0 25
09 20.02 СВ 5 20 км 1/0
[]
-34.3 -38.0 69 -48 -48 опасность
обморожения
1031.6 1027.2
12 20.02 СВ 4 19 км ледяные иглы {снег} 5/4 100 м
[Sc Ac trans]
-35.6 -39.4 68 -48 -48 опасность
обморожения
1032.6 1028.1 -36.5 -31.4 0.0 25
15 20.02 СВ 3 9000 м 8/8 100 м
[]
-35.9 -39.7 68 -47 -47 опасность
обморожения
1032.6 1028.1
18 20.02 СВ 7 2400 м ледяные иглы {снег} 8/3 100 м
[St Ac trans]
-32.8 -36.4 70 -48 -48 опасность
обморожения
1032.4 1028.0 -36.5 -32.7 0.0 25
21 20.02 СВ 5 19 км 9/9 200 м
[]
-31.9 -35.7 69 -44 -44 опасность
обморожения
1032.9 1028.5
00 21.02 СВ 5 19 км слабый снег 9/3 1500 м
[Sc Ac As]
-31.6 -35.4 69 -44 -44 опасность
обморожения
1032.8 1028.4 -36.4 -31.1 0.0 25
03 21.02 СВ 6 24 км 8/0 2000 м
[]
-31.8 -35.6 69 -46 -46 опасность
обморожения
1031.9 1027.5
06 21.02 СВ 6 24 км {снег} 4/0
[Ac As]
-33.6 -37.5 68 -48 -48 опасность
обморожения
1031.6 1027.2 -36.4 -31.1 0.0 25
09 21.02 СВ 3 24 км 10/0
[]
-31.6 -35.7 67 -42 -42 опасность
обморожения
1031.2 1026.8
12 21.02 В 6 24 км 8/0 2000 м
[Ac As]
-30.7 -34.8 67 -44 -44 опасность
обморожения
1030.2 1025.8 -34.1 -31.1
15 21.02 В 5 24 км 6/0 2000 м
[]
-30.9 -34.7 69 -43 -43 опасность
обморожения
1029.6 1025.2
18 21.02 В 4 19 км 9/0 2000 м
[Ac As]
-30.7 -34.7 68 -42 -42 опасность
обморожения
1029.7 1025.3 -34.1 -29.7
21 21.02 В 4 24 км 5/0
[]
-30.8 -34.6 69 -42 -41 опасность
обморожения
1029.4 1025.0
00 22.02 В 4 24 км 9/0
[Ac As Ci fib]
-32.0 -35.6 70 -43 -43 опасность
обморожения
1029.3 1024.9 -33.8 -29.6
03 22.02 В 3 24 км 9/0
[]
-30.3 -34.0 70 -40 -40 опасность
обморожения
1029.2 1024.8
06 22.02 ЮВ 2 24 км 10/0 2000 м
[Ac As]
-28.5 -32.4 69 -34 -34 опасность
обморожения
1029.1 1024.7 -33.8 -28.5
09 22.02 В 2 24 км 5/0 2000 м
[]
-29.1 -33.0 69 -35 -35 опасность
обморожения
1029.0 1024.6
12 22.02 В 3 19 км слабый снег 9/5 600 м
[Sc Ac As]
-27.4 -31.0 71 -36 -36 опасность
обморожения
1028.4 1024.0 -32.5 -28.5 0.0 25
15 22.02 В 3 12 км 10/10 600 м
[]
-26.0 -29.4 73 -34 -34 опасность
обморожения
1027.6 1023.2
18 22.02 ЮВ 3 19 км слабый снег 9/3 600 м
[Sc Ac trans]
-25.2 -28.7 72 -33 -33 опасность
обморожения
1026.9 1022.5 -32.5 -24.8 0.2 25
21 22.02 ЮВ 1 22 км 6/6 600 м
[]
-24.7 -28.2 73 -28 -28 1026.6 1022.2
00 23.02 Ю 2 24 км ледяные иглы {снег} 5/5 300 м
[Sc]
-26.5 -29.3 77 -32 -32 опасность
обморожения
1026.1 1021.7 -29.1 -24.3 0.0 25
03 23.02 СВ 2 24 км 3/3 1000 м
[]
-29.8 -32.8 75 -37 -37 опасность
обморожения
1025.7 1021.3
06 23.02 СВ 1 19 км ледяные иглы {снег} 3/3 1000 м
[Sc]
-29.8 -32.9 74 -34 -34 опасность
обморожения
1025.2 1020.8 -30.8 -24.3 0.0 25
09 23.02 СВ 3 19 км 3/3 1000 м
[]
-30.2 -33.4 73 -39 -39 опасность
обморожения
1024.7 1020.3
12 23.02 В 2 19 км ледяные иглы {снег} 4/4 200 м
[Sc]
-29.6 -32.9 73 -36 -36 опасность
обморожения
1024.3 1019.9 -30.8 -24.3 0.0 25
15 23.02 СВ 2 12 км 10/10 200 м
[]
-27.9 -31.1 74 -34 -34 опасность
обморожения
1023.8 1019.4
18 23.02 СВ 1 16 км слабый снег 9/9 200 м
[Sc Ac trans]
-25.6 -28.7 75 -29 -29 1023.1 1018.7 0.2 25
21 23.02 СВ 1 16 км 9/9 200 м
[]
-25.1 -28.3 75 -29 -29 1023.0 1018.6
00 24.02 С 1 19 км слабый снег 8/4 50 м
[Sc Ac As]
-28.2 -31.4 74 -32 -32 опасность
обморожения
1023.6 1019.2 0.2 31
03 24.02 С 4 19 км 9/9 50 м
[]
-26.4 -29.5 75 -36 -36 опасность
обморожения
1023.7 1019.3

 

Местоположение метеостанции Cambridge Bay Arpt (Канада): широта 69.10 долгота -105.10 высота над уровнем моря 27 м.

В архиве по умолчанию представлена погода в Cambridge Bay Arpt за последнюю неделю. Архивные данные за месяц целиком и за предыдущие месяцы, начиная с января 2011 года, Вы можете получить, выбрав интересующий диапазон дат из раскрывающегося списка и нажав кнопку "Ввод!".

Внимание! Время в таблицах - всемирное. Для получения местного времени необходимо прибавить поправку, которая в Cambridge Bay Arpt равна -7 ч.

Смотрите также архив погоды в соседних городах и на ближайших метеорологических станциях:

Погода в Cape Peel West (Канада) (108 км)
Погода в Ellice River AWS (Канада) (158 км)
Погода в Hat Island (Канада) (223 км)
Погода в Gjoa Haven Climate (Канада) (374 км)
Погода в Kugluktuk (Канада) (432 км)
Погода в Kugluktuk Airport (Канада) (432 км)
Погода в Lupin (Канада) (452 км)
Погода в Lupin (maps) (Канада) (452 км)
Погода в Spence bay (Канада) (454 км)
Погода в Robertson Lake (Канада) (460 км)

Пояснения к столбцам:

Ветер - указаны скорость ветра в м/с - средняя за 10 мин, порывы в срок и между сроками (в фигурных скобках) и направление, откуда дует ветер: С - северный, СВ - северо-восточный, В - восточный, ЮВ - юго-восточный, Ю - южный, ЮЗ - юго-западный, З - западный, СЗ - северо-западный.
Видимость - горизонтальная дальность видимости в метрах или километрах. При видимости от 1 до 10 км при отсутствии осадков обычно наблюдается дымка, при ухудшении видимости до 1 км и менее - туман. В сухую погоду видимость может ухудшаться дымом, пылью или мглою.
Явления - указаны атмосферные явления, наблюдавшиеся в срок или в последний час перед сроком; фигурными скобками обозначены явления, наблюдавшиеся между сроками (за 1-3 часа до срока); квадратными скобками обозначены град или гололедные отложения с указанием их диаметра в мм.
Облачность - указаны через наклонную черту общая и нижняя облачность в баллах и высота нижней границы облаков в метрах; квадратными скобками обозначены формы облаков: Ci - перистые, Cs - перисто-слоистые, Cc - перисто-кучевые, Ac - высококучевые, As - высокослоистые, Sc - слоисто-кучевые, Ns - слоисто-дождевые, Cu - кучевые, Cb - кучево-дождевые. Подробнее классификацию облаков см. в Атласе облаков (PDF).
T - Температура воздуха - температура, измеренная на высоте 2 м над землей.
Td - Температура точки росы - температура, при понижении до которой содержащийся в воздухе водяной пар достигнет насыщения.
f - Относительная влажность воздуха - влажноcть воздуха, измеренная на высоте 2 м над землей.
Te - Эффективная температура - температура, которую ощущает одетый по сезону человек в тени. Характеристика душности погоды. При расчете учитывается влияние влажности воздуха и скорости ветра на теплоощущения человека.
Tes - Эффективная температура на солнце - температура, которую ощущает человек, с поправкой на солнечный нагрев. Характеристика знойности погоды. Зависит от высоты солнца над горизонтом, облачности и скорости ветра. Ночью, в пасмурную погоду, а также при ветре 12 м/с и более поправка равна нулю.
P - Атмосферное давление - приведенное к уровню моря атмосферное давление.
Po - Атмосферное давление - измеренное на уровне метеостанции атмосферное давление.
Tmin - Минимальная температура - минимум температуры воздуха на высоте 2 м над землей.
Tmax - Максимальная температура - максимум температуры воздуха на высоте 2 м над землей.
R - Количество осадков - Количество выпавших осадков, мм. При наведении курсора мыши на число - период времени, за который выпало указанное количество осадков.
S - Снежный покров - Высота снежного покрова, см. При наведении курсора мыши на число - состояние снежного покрова и степень покрытия местности в баллах.